Regional Weather Roundup
Issued by NWS

Home | Current Version | Previous Version | Graphics & Text | Print | Product List | Glossary Off
Versions: 1 2 3 4 5 6 7 8 9 10 11 12 13 14 15 16 17 18 19 20 21 22 23 24 25 26 27 28 29 30 31 32 33 34 35 36 37 38 39 40 41 42 43 44 45 46 47 48 49 50

964
ASUS43 KMKX 232121
RWRWI

WISCONSIN REGIONAL WEATHER ROUNDUP
NATIONAL WEATHER SERVICE MILWAUKEE/SULLIVAN WI
400 PM CDT SUN APR 23 2017

NOTE: "FAIR" INDICATES FEW OR NO CLOUDS BELOW 12,000 FEET WITH NO
SIGNIFICANT WEATHER AND/OR OBSTRUCTIONS TO VISIBILITY.

WIZ001-002-006>008-014>016-023>028-232200-
NORTHWEST WISCONSIN

CITY           SKY/WX    TMP DP  RH WIND       PRES   REMARKS
SUPERIOR ARPT  CLOUDY    36  31  83 E13G20    30.15F WCI  27
ASHLAND        CLOUDY    37  28  70 NE10      30.16F WCI  30
HAYWARD        CLOUDY    46  35  65 E10G16    30.08F
SIREN          CLOUDY    51  35  53 NE9       30.04F
CUMBERLAND     MOSUNNY   55  37  50 N7        30.01F
RICE LAKE      MOSUNNY   60  39  46 CALM      30.03F
CHETEK         MOSUNNY   60  42  51 NE3       30.01F
LADYSMITH      MOSUNNY   58  41  51 NE3       30.05S HAZE
EAU CLAIRE     CLOUDY    66  39  37 CALM      29.98F
MENOMONIE      MOSUNNY   66  39  36 CALM      29.99F
NEW RICHMOND   PTSUNNY   66  38  35 SW5       29.99F
OSCEOLA        PTSUNNY   63  43  48 N5        30.01F
$$

WIZ003>005-009-010-017-018-232200-
NORTH CENTRAL WISCONSIN

CITY           SKY/WX    TMP DP  RH WIND       PRES   REMARKS
MANITOWISH WTR CLOUDY    40  35  83 E6        30.09F
ARBOR VITAE    CLOUDY    43  35  73 SE7       30.07F
WOODRUFF       CLOUDY    43  35  73 SE7       30.07F
RHINELANDER    MOSUNNY   50  36  58 NE10      30.06F
EAGLE RIVER    CLOUDY    42  32  68 E7        30.09F
LAND O LAKES   CLOUDY    39  33  78 NE8       30.11F WCI  34
PHILLIPS       CLOUDY    50  37  59 NE9       30.04F
TOMAHAWK       MOSUNNY   55  38  51 E6        30.04F
MEDFORD        MOSUNNY   61  43  52 SW3       30.00F
MERRILL        SUNNY     59  42  53 E3        30.03F
$$

WIZ029-030-035-036-043>047-232200-
CENTRAL WISCONSIN

CITY           SKY/WX    TMP DP  RH WIND       PRES   REMARKS
WAUSAU         SUNNY     63  42  46 VRB5      30.00F
MOSINEE        MOSUNNY   64  39  39 NW3       30.01F
MARSHFIELD     SUNNY     67  36  31 NW7       29.98F
STEVENS POINT  SUNNY     62  42  47 E14       30.01F
WAUPACA        SUNNY     62  43  49 E10G18    30.05F
WAUTOMA        MOSUNNY   63  45  51 MISG        N/A
WISC RAPIDS    SUNNY     71  40  32 N9        29.99F
CAMP DOUGLAS   SUNNY     71  33  24 W9        29.98F
$$

WIZ011>013-019>022-031-037>040-048>050-232200-
NORTHEAST WISCONSIN

CITY           SKY/WX    TMP DP  RH WIND       PRES   REMARKS
ANTIGO         MOSUNNY   56  39  53 E10       30.05F
SHAWANO        SUNNY     56  41  57 E10G17    30.09S
OCONTO         SUNNY     43  32  66 E14       30.12F
STURGEON BAY   PTSUNNY   44  33  65 E13       30.13F
GREEN BAY      SUNNY     49  39  68 NE20      30.10S
MANITOWOC      SUNNY     43  35  73 NE14G21   30.12S
APPLETON       MOSUNNY   55  39  54 NE14G21   30.05F
CLINTONVILLE   SUNNY     55  39  54 E13G18    30.07F
OSHKOSH        SUNNY     56  43  61 E13       30.05F
$$

WIZ032>034-041-042-053>061-232200-
SOUTHWEST WISCONSIN

CITY           SKY/WX    TMP DP  RH WIND       PRES   REMARKS
LA CROSSE      SUNNY     74  33  22 SW5       29.97F
SPARTA         SUNNY     71  36  27 W5        29.99F
VIROQUA        SUNNY     70  29  21 W9G16     30.01F
BOSCOBEL       SUNNY     74  32  21 SW13      30.00F
PRAIRIE DU CHI SUNNY     71  31  22 SW7       30.00F
PLATTEVILLE    SUNNY     70  32  24 CALM      30.02F
$$

WIZ056-057-062-063-064-067-068-232200-
SOUTH CENTRAL WISCONSIN

CITY           SKY/WX    TMP DP  RH WIND       PRES   REMARKS
REEDSBURG      SUNNY     71  34  25 SW3G9     29.99F
BARABOO/DELLS  SUNNY     72  31  22 W3        30.00F
LONE ROCK      SUNNY     72  34  24 W8G20     30.00F
MINERAL POINT  SUNNY     72  30  21 SW7       30.02F
MADISON        MOSUNNY   70  30  22 NW7       30.01F
MIDDLETON      SUNNY     72  32  22 NW7       30.01F
WATERTOWN      SUNNY     71  36  28 SW9       30.01F
MONROE         SUNNY     70  32  24 NW6       30.02F
JANESVILLE     SUNNY     72  30  21 W5        30.04
$$

WIZ051-052-058>065-066-070>072-232200-
SOUTHEAST WISCONSIN

CITY           SKY/WX    TMP DP  RH WIND       PRES   REMARKS
MILWAUKEE      MOSUNNY   45  37  73 N15G23    30.09F
WAUKESHA       SUNNY     52  37  58 E12G25    30.07F
MILWAUKEE/TIMM SUNNY     46  36  66 NE13      30.09F
RACINE         SUNNY     46  38  73 N18       30.09S
KENOSHA        SUNNY     62  42  47 NE15      30.04S
FOND DU LAC    SUNNY     58  41  53 E13       30.05F
SHEBOYGAN      SUNNY     45  38  76 NE17      30.10S
WEST BEND      SUNNY     52  39  62 E10       30.07F
JUNEAU         MOSUNNY   62  47  57 E17       30.02F
$$

LSZ147-162-232200-
LAKE SUPERIOR

STATION/POSITION TIME  TEMP    WIND        PRES    WAVE
                       AIR SEA DIR/SP/G            HT/PER
                 (UTC) (F)     (DEG/KT/KT) (MB)    (FT/S)
DEVILS ISLAND    2100   33     100/ 14/ 16 1022.7F
PORT WING        1940   35      40/ 19/ 21 1022.0S
SAXON HARBOR     2040   36      50/ 18/ 20 1021.0F
$$

LMZ867-665-643>646-232200-
LAKE MICHIGAN

STATION/POSITION TIME  TEMP    WIND        PRES    WAVE
                       AIR SEA DIR/SP/G            HT/PER
                 (UTC) (F)     (DEG/KT/KT) (MB)    (FT/S)
CHAMBERS ISLAND  2040   38      40/ 12/ 17 1020.3F
N MID LAKE BUOY  2050   37 37   30/ 12/ 14 1022.5F   2/ 4
NORTHPORT PIER   2040   39     360/ 12/ 14 1021.3F
KEWAUNEE LAKESHO 2054   39      50/ 17/ 21 1019.8S
SHEBOYGAN LAKESH 2100   38      30/ 20/ 22 1019.7F
PORT WASHINGTON  2030   43      40/ 16/ 19 1020.3S
MILWAUKEE LAKESH 2100   40      20/ 17/ 18   N/A
KENOSHA   LAKESH 2100   43      20/ 22/ 25 1017.6
$$

TC  - TEMPERATURE IN CELSIUS
VSB - VISIBILITY IN STATUTE MILES
WCI - WIND CHILL INDEX
HX  - HEAT INDEX





USA.gov is the U.S. government's official web portal to all federal, state and local government web resources and services.